EDT,Max TemperatureF,Mean TemperatureF,Min TemperatureF,Max Dew PointF,MeanDew PointF,Min DewpointF,Max Humidity, Mean Humidity, Min Humidity, Max Sea Level PressureIn, Mean Sea Level PressureIn, Min Sea Level PressureIn, Max VisibilityMiles, Mean VisibilityMiles, Min VisibilityMiles, Max Wind SpeedMPH, Mean Wind SpeedMPH, Max Gust SpeedMPH,PrecipitationIn, CloudCover, Events, WindDirDegrees
2012-10-1,62,48,35,52,45,32,100,74,48,29.96,29.88,29.81,10,9,0,16,7,21,0.00,0,,227
2012-10-2,64,54,44,52,47,41,93,79,52,29.96,29.92,29.87,10,10,2,13,5,16,0.00,2,,20
2012-10-3,59,44,37,54,41,36,100,93,82,30.01,29.98,29.96,10,2,0,9,2,,0.00,6,,331
2012-10-4,55,48,42,54,49,39,100,94,87,29.99,29.94,29.91,1,0,0,7,4,,0.00,8,,199
2012-10-5,51,46,41,27,25,23,53,45,37,29.92,29.89,29.86,10,10,10,21,17,29,0.00,8,,272
2012-10-6,44,38,32,30,28,25,81,67,49,30.14,29.97,29.86,10,10,10,18,12,28,0.00,3,,292
2012-10-7,51,40,28,28,21,12,86,54,21,30.13,30.05,29.98,10,10,10,16,8,23,0.00,3,,265
2012-10-8,55,44,33,39,27,18,58,49,37,30.00,29.90,29.75,10,10,10,25,12,39,0.00,3,,211
2012-10-9,55,47,39,45,39,36,87,70,47,29.76,29.72,29.66,10,9,5,23,15,38,0.24,6,,220
2012-10-10,42,35,28,30,26,21,87,68,42,30.05,29.95,29.82,10,10,10,20,10,33,0.00,6,,289
2012-10-11,46,38,30,36,28,19,93,66,37,30.24,30.00,29.86,10,10,7,22,8,32,0.10,5,,283
2012-10-12,46,36,26,36,25,18,86,63,34,30.44,30.36,30.25,10,10,10,16,8,22,0.00,0,,255
2012-10-13,50,46,42,46,42,34,93,82,62,30.26,29.96,29.75,10,8,2,20,10,29,0.32,7,,207
2012-10-14,48,46,42,46,43,39,93,88,81,29.79,29.63,29.46,10,8,2,17,7,28,0.38,8,,7
2012-10-15,46,38,30,39,34,27,93,75,53,29.94,29.81,29.61,10,10,10,17,10,25,0.12,6,,321
2012-10-16,53,40,28,46,41,27,93,83,72,29.92,29.75,29.56,10,10,5,16,6,25,0.04,7,,178
2012-10-17,60,52,44,52,48,41,94,82,67,29.55,29.43,29.33,10,9,4,18,8,24,0.14,3,,147
2012-10-18,57,52,46,54,46,37,94,83,66,29.50,29.31,29.15,10,9,5,25,13,36,0.40,7,,168
2012-10-19,51,48,44,45,41,39,93,80,62,29.61,29.57,29.50,10,10,4,18,9,20,0.00,8,,103
2012-10-20,59,50,42,45,42,37,93,81,48,29.84,29.72,29.61,10,9,0,8,5,,0.01,5,,345
2012-10-21,57,45,35,45,40,32,93,78,54,30.00,29.96,29.85,10,9,1,13,6,16,0.00,0,,219
2012-10-22,59,52,44,46,45,41,93,77,59,30.03,30.01,29.98,10,9,2,10,4,,0.00,6,,28
2012-10-23,55,53,51,52,48,45,94,84,76,30.01,29.96,29.92,10,9,4,18,11,24,0.02,8,,78
2012-10-24,57,55,53,55,53,50,100,93,88,29.94,29.89,29.77,8,2,0,16,10,21,0.02,8,,128
2012-10-25,59,50,41,55,51,36,94,87,76,29.83,29.64,29.48,10,8,5,21,11,30,0.55,7,Thunderstorm,209
2012-10-26,44,37,30,34,27,25,86,67,46,30.31,30.16,29.85,10,10,10,18,11,26,0.00,5,,271
2012-10-27,42,33,24,27,21,14,93,65,34,30.35,30.31,30.29,10,10,10,14,4,24,0.00,4,,314
2012-10-28,46,34,21,25,21,14,86,61,37,30.39,30.36,30.33,10,10,10,12,4,,0.00,0,,356
2012-10-29,46,37,28,28,23,21,80,62,37,30.37,30.32,30.18,10,10,10,17,7,25,0.00,0,,348
2012-10-30,39,37,35,28,25,18,75,61,42,30.18,29.96,29.83,10,10,8,24,15,41,0.00,4,,353
2012-10-31,39,36,33,34,30,25,87,76,65,29.82,29.78,29.75,10,10,6,21,14,30,0.00,8,,333